Time,TemperatureF,DewpointF,PressureIn,WindDirection,WindDirectionDegrees,WindSpeedMPH,WindSpeedGustMPH,Humidity,HourlyPrecipIn,Conditions,Clouds,dailyrainin,SolarRadiationWatts/m^2,SoftwareType,DateUTC
2013-07-25 00:02:00,74.0,48.0,-100.00,WNW,301,14.0,18.0,40,0.00,,,0.00,0.000000,,2013-07-25 07:02:00,
2013-07-25 00:12:00,74.0,48.0,-100.00,WNW,301,14.0,18.0,40,0.00,,,0.00,0.000000,,2013-07-25 07:12:00,
2013-07-25 00:22:00,74.0,48.0,-100.00,WNW,301,14.0,18.0,40,0.00,,,0.00,0.000000,,2013-07-25 07:22:00,
2013-07-25 01:02:00,71.0,50.0,-100.00,NW,308,12.0,19.0,48,0.00,,,0.00,0.000000,,2013-07-25 08:02:00,
2013-07-25 01:12:00,71.0,50.0,-100.00,NW,308,12.0,19.0,48,0.00,,,0.00,0.000000,,2013-07-25 08:12:00,
2013-07-25 01:22:00,71.0,50.0,-100.00,NW,308,12.0,19.0,48,0.00,,,0.00,0.000000,,2013-07-25 08:22:00,
2013-07-25 02:02:00,70.0,51.0,-100.00,WNW,303,13.0,21.0,51,0.00,,,0.00,0.000000,,2013-07-25 09:02:00,
2013-07-25 02:12:00,70.0,51.0,-100.00,WNW,303,13.0,21.0,51,0.00,,,0.00,0.000000,,2013-07-25 09:12:00,
2013-07-25 02:22:00,70.0,51.0,-100.00,WNW,303,13.0,21.0,51,0.00,,,0.00,0.000000,,2013-07-25 09:22:00,
2013-07-25 03:02:00,69.0,51.0,-100.00,WNW,297,11.0,15.0,52,0.00,,,0.00,0.000000,,2013-07-25 10:02:00,
2013-07-25 03:12:00,69.0,51.0,-100.00,WNW,297,11.0,15.0,52,0.00,,,0.00,0.000000,,2013-07-25 10:12:00,
2013-07-25 03:22:00,69.0,51.0,-100.00,WNW,297,11.0,15.0,52,0.00,,,0.00,0.000000,,2013-07-25 10:22:00,
2013-07-25 04:02:00,66.0,50.0,-100.00,WNW,283,7.0,14.0,57,0.00,,,0.00,0.000000,,2013-07-25 11:02:00,
2013-07-25 04:12:00,66.0,50.0,-100.00,WNW,283,7.0,14.0,57,0.00,,,0.00,0.000000,,2013-07-25 11:12:00,
2013-07-25 04:22:00,66.0,50.0,-100.00,WNW,283,7.0,14.0,57,0.00,,,0.00,0.000000,,2013-07-25 11:22:00,
2013-07-25 05:02:00,66.0,51.0,-100.00,WNW,290,9.0,12.0,58,0.00,,,0.00,0.000000,,2013-07-25 12:02:00,
2013-07-25 05:12:00,66.0,51.0,-100.00,WNW,290,9.0,12.0,58,0.00,,,0.00,0.000000,,2013-07-25 12:12:00,
2013-07-25 05:22:00,66.0,51.0,-100.00,WNW,290,9.0,12.0,58,0.00,,,0.00,0.000000,,2013-07-25 12:22:00,
2013-07-25 06:02:00,65.0,49.0,-100.00,WNW,297,6.0,11.0,57,0.00,,,0.00,1.000000,,2013-07-25 13:02:00,
2013-07-25 06:12:00,65.0,49.0,-100.00,WNW,297,6.0,11.0,57,0.00,,,0.00,1.000000,,2013-07-25 13:12:00,
2013-07-25 06:22:00,65.0,49.0,-100.00,WNW,297,6.0,11.0,57,0.00,,,0.00,1.000000,,2013-07-25 13:22:00,
2013-07-25 07:02:00,66.0,50.0,-100.00,SSW,201,1.0,6.0,57,0.00,,,0.00,60.000000,,2013-07-25 14:02:00,
2013-07-25 07:12:00,66.0,50.0,-100.00,SSW,201,1.0,6.0,57,0.00,,,0.00,60.000000,,2013-07-25 14:12:00,
2013-07-25 07:22:00,66.0,50.0,-100.00,SSW,201,1.0,6.0,57,0.00,,,0.00,60.000000,,2013-07-25 14:22:00,
2013-07-25 09:02:00,76.0,48.0,-100.00,West,265,6.0,9.0,37,0.00,,,0.00,435.000000,,2013-07-25 16:02:00,
2013-07-25 09:12:00,76.0,48.0,-100.00,West,265,6.0,9.0,37,0.00,,,0.00,435.000000,,2013-07-25 16:12:00,
2013-07-25 09:22:00,76.0,48.0,-100.00,West,265,6.0,9.0,37,0.00,,,0.00,435.000000,,2013-07-25 16:22:00,
2013-07-25 10:02:00,81.0,52.0,-100.00,WSW,250,5.0,8.0,36,0.00,,,0.00,626.000000,,2013-07-25 17:02:00,
2013-07-25 10:12:00,81.0,52.0,-100.00,WSW,250,5.0,8.0,36,0.00,,,0.00,626.000000,,2013-07-25 17:12:00,
2013-07-25 10:22:00,81.0,52.0,-100.00,WSW,250,5.0,8.0,36,0.00,,,0.00,626.000000,,2013-07-25 17:22:00,
2013-07-25 11:02:00,85.0,52.0,-100.00,WNW,300,5.0,8.0,32,0.00,,,0.00,792.000000,,2013-07-25 18:02:00,
2013-07-25 11:12:00,85.0,52.0,-100.00,WNW,300,5.0,8.0,32,0.00,,,0.00,792.000000,,2013-07-25 18:12:00,
2013-07-25 11:22:00,85.0,52.0,-100.00,WNW,300,5.0,8.0,32,0.00,,,0.00,792.000000,,2013-07-25 18:22:00,
2013-07-25 12:02:00,89.0,49.0,-100.00,WSW,248,4.0,9.0,25,0.00,,,0.00,921.000000,,2013-07-25 19:02:00,
2013-07-25 12:12:00,89.0,49.0,-100.00,WSW,248,4.0,9.0,25,0.00,,,0.00,921.000000,,2013-07-25 19:12:00,
2013-07-25 12:22:00,89.0,49.0,-100.00,WSW,248,4.0,9.0,25,0.00,,,0.00,921.000000,,2013-07-25 19:22:00,
2013-07-25 13:02:00,92.0,50.0,-100.00,SSE,168,7.0,13.0,24,0.00,,,0.00,994.000000,,2013-07-25 20:02:00,
2013-07-25 13:11:00,92.0,50.0,-100.00,SSE,168,7.0,13.0,24,0.00,,,0.00,994.000000,,2013-07-25 20:11:00,
2013-07-25 13:22:00,92.0,50.0,-100.00,SSE,168,7.0,13.0,24,0.00,,,0.00,994.000000,,2013-07-25 20:22:00,
2013-07-25 14:02:00,96.0,41.0,-100.00,WSW,239,7.0,12.0,15,0.00,,,0.00,1031.000000,,2013-07-25 21:02:00,
2013-07-25 14:12:00,96.0,41.0,-100.00,WSW,239,7.0,12.0,15,0.00,,,0.00,1031.000000,,2013-07-25 21:12:00,
2013-07-25 14:22:00,96.0,41.0,-100.00,WSW,239,7.0,12.0,15,0.00,,,0.00,1031.000000,,2013-07-25 21:22:00,
2013-07-25 15:02:00,99.0,40.0,-100.00,SSW,194,4.0,9.0,13,0.00,,,0.00,1006.000000,,2013-07-25 22:02:00,
2013-07-25 15:12:00,99.0,40.0,-100.00,SSW,194,4.0,9.0,13,0.00,,,0.00,1006.000000,,2013-07-25 22:12:00,
2013-07-25 15:22:00,99.0,40.0,-100.00,SSW,194,4.0,9.0,13,0.00,,,0.00,1006.000000,,2013-07-25 22:22:00,
2013-07-25 16:02:00,98.0,47.0,-100.00,ESE,114,6.0,11.0,18,0.00,,,0.00,918.000000,,2013-07-25 23:02:00,
2013-07-25 16:12:00,98.0,47.0,-100.00,ESE,114,6.0,11.0,18,0.00,,,0.00,918.000000,,2013-07-25 23:12:00,
2013-07-25 16:22:00,98.0,47.0,-100.00,ESE,114,6.0,11.0,18,0.00,,,0.00,918.000000,,2013-07-25 23:22:00,
2013-07-25 17:02:00,99.0,47.0,-100.00,ESE,114,4.0,10.0,17,0.00,,,0.00,787.000000,,2013-07-26 00:02:00,
2013-07-25 17:12:00,99.0,47.0,-100.00,ESE,114,4.0,10.0,17,0.00,,,0.00,787.000000,,2013-07-26 00:12:00,
2013-07-25 17:22:00,99.0,47.0,-100.00,ESE,114,4.0,10.0,17,0.00,,,0.00,787.000000,,2013-07-26 00:22:00,
2013-07-25 18:02:00,99.0,40.0,-100.00,SSE,165,4.0,10.0,13,0.00,,,0.00,623.000000,,2013-07-26 01:02:00,
2013-07-25 18:12:00,99.0,40.0,-100.00,SSE,165,4.0,10.0,13,0.00,,,0.00,623.000000,,2013-07-26 01:12:00,
2013-07-25 18:22:00,99.0,40.0,-100.00,SSE,165,4.0,10.0,13,0.00,,,0.00,623.000000,,2013-07-26 01:22:00,
2013-07-25 19:02:00,98.0,44.0,-100.00,South,180,6.0,9.0,16,0.00,,,0.00,431.000000,,2013-07-26 02:02:00,
2013-07-25 19:12:00,98.0,44.0,-100.00,South,180,6.0,9.0,16,0.00,,,0.00,431.000000,,2013-07-26 02:12:00,
2013-07-25 19:22:00,98.0,44.0,-100.00,South,180,6.0,9.0,16,0.00,,,0.00,431.000000,,2013-07-26 02:22:00,
2013-07-25 20:02:00,94.0,45.0,-100.00,South,178,5.0,8.0,19,0.00,,,0.00,235.000000,,2013-07-26 03:02:00,
2013-07-25 20:12:00,94.0,45.0,-100.00,South,178,5.0,8.0,19,0.00,,,0.00,235.000000,,2013-07-26 03:12:00,
2013-07-25 20:22:00,94.0,45.0,-100.00,South,178,5.0,8.0,19,0.00,,,0.00,235.000000,,2013-07-26 03:22:00,
2013-07-25 21:02:00,86.0,49.0,-100.00,WSW,258,6.0,9.0,28,0.00,,,0.00,64.000000,,2013-07-26 04:02:00,
2013-07-25 21:12:00,86.0,49.0,-100.00,WSW,258,6.0,9.0,28,0.00,,,0.00,64.000000,,2013-07-26 04:12:00,
2013-07-25 21:22:00,86.0,49.0,-100.00,WSW,258,6.0,9.0,28,0.00,,,0.00,64.000000,,2013-07-26 04:22:00,
2013-07-25 23:12:00,75.0,45.0,-100.00,WNW,301,14.0,22.0,34,-99.99,,,-99.99,0.000000,,2013-07-26 06:12:00,
2013-07-25 23:22:00,75.0,45.0,-100.00,WNW,301,14.0,22.0,34,-99.99,,,-99.99,0.000000,,2013-07-26 06:22:00,